Location: Unspecified
(50.1700°N, 6.8600°E)
Time: 22:40:34
(UTC+00:00)

Envisat - Visible Passes

Search period start: 17 October 2019 00:00
Search period end: 27 October 2019 00:00
Orbit: 764 x 766 km, 98.1° (Epoch: 17 October)

Date Brightness Start Highest point End Pass type
(mag) Time Alt. Az. Time Alt. Az. Time Alt. Az.
17 Oct 3.5 17:43:48 10° S 17:48:51 66° WSW 17:53:56 10° NNW visible
18 Oct 3.0 17:07:05 10° SSE 17:12:05 64° ENE 17:17:08 10° N visible
18 Oct 5.6 18:47:48 10° SW 18:51:33 21° W 18:55:21 10° NW visible
19 Oct 6.2 05:12:28 10° NE 05:15:31 16° E 05:18:33 10° SE visible
19 Oct 4.4 18:09:42 10° SSW 18:14:28 40° W 18:19:17 10° NNW visible
20 Oct 3.1 17:32:29 10° SSE 17:37:34 81° WSW 17:42:41 10° NNW visible
20 Oct 6.1 19:15:17 10° WSW 19:17:26 13° W 19:19:35 10° WNW visible
21 Oct 3.2 16:55:57 10° SE 17:00:52 52° ENE 17:05:48 10° N visible
21 Oct 5.3 18:36:01 10° SSW 18:40:11 25° W 18:44:23 10° NW visible
22 Oct 6.4 05:01:52 10° ENE 05:04:05 13° E 05:06:18 10° ESE visible
22 Oct 4.0 17:58:13 10° S 18:03:08 49° W 18:08:06 10° NNW visible
23 Oct 3.0 17:21:14 10° SSE 17:26:18 84° ENE 17:31:25 10° NNW visible
23 Oct 5.9 19:03:00 10° WSW 19:06:00 16° W 19:09:01 10° NW visible
24 Oct 6.0 05:26:08 10° NE 05:29:57 21° E 05:33:44 10° SE visible
24 Oct 4.9 18:24:21 10° SSW 18:28:49 31° W 18:33:19 10° NNW visible
25 Oct 3.6 17:46:49 10° S 17:51:49 61° WSW 17:56:54 10° NNW visible
26 Oct 3.0 17:10:01 10° SSE 17:15:03 69° ENE 17:20:08 10° N visible
26 Oct 5.7 18:51:00 10° SW 18:54:36 19° W 18:58:12 10° NW visible
